Location: Aytr�
(46.1357°N, 1.1145°W)
Time: 07:05:46
(UTC+00:00)

USA 234 - Visible Passes

Search period start: 21 June 2021 00:00
Search period end: 01 July 2021 00:00
Orbit: 1102 x 1105 km, 123.0° (Epoch: 18 April)

Date Brightness Start Highest point End Pass type
(mag) Time Alt. Az. Time Alt. Az. Time Alt. Az.
24 Jun 5.1 20:37:16 10° SSW 20:41:54 20° WSW 20:46:34 10° WNW visible
26 Jun 5.1 20:54:50 10° SSW 20:59:28 20° WSW 21:04:06 10° WNW visible
28 Jun 5.0 21:12:26 10° SSW 21:17:02 20° WSW 21:21:39 10° WNW visible
29 Jun 4.2 20:27:45 10° SSE 20:33:49 39° SW 20:39:54 10° WNW visible
30 Jun 5.0 21:30:02 10° SSW 21:34:36 20° WSW 21:39:11 10° WNW visible
